Time,TemperatureF,DewpointF,PressureIn,WindDirection,WindDirectionDegrees,WindSpeedMPH,WindSpeedGustMPH,Humidity,HourlyPrecipIn,Conditions,Clouds,dailyrainin,SoftwareType,DateUTC
2013-05-22 11:33:00,60.0,40.0,-100.00,NNE,30,19.0,21.0,49,-99.99,,,-99.99,,2013-05-22 16:33:00,
2013-05-22 11:42:00,60.0,40.0,-100.00,NNE,30,19.0,21.0,49,-99.99,,,-99.99,,2013-05-22 16:42:00,
2013-05-22 11:52:00,60.0,40.0,-100.00,NNE,30,19.0,21.0,49,-99.99,,,-99.99,,2013-05-22 16:52:00,
2013-05-22 12:02:00,60.0,40.0,-100.00,NNE,30,19.0,21.0,49,-99.99,,,-99.99,,2013-05-22 17:02:00,
2013-05-22 12:10:00,62.0,38.0,-100.00,NNE,20,21.0,25.0,41,-99.99,,,-99.99,,2013-05-22 17:10:00,
2013-05-22 12:33:00,62.0,38.0,-100.00,NNE,20,21.0,25.0,41,-99.99,,,-99.99,,2013-05-22 17:33:00,
2013-05-22 12:42:00,62.0,38.0,-100.00,NNE,20,21.0,25.0,41,-99.99,,,-99.99,,2013-05-22 17:42:00,
2013-05-22 12:54:00,62.0,38.0,-100.00,NNE,20,21.0,25.0,41,-99.99,,,-99.99,,2013-05-22 17:54:00,
2013-05-22 13:02:00,62.0,38.0,-100.00,NNE,20,21.0,25.0,41,-99.99,,,-99.99,,2013-05-22 18:02:00,
2013-05-22 13:10:00,65.0,39.0,-100.00,NNE,30,17.0,22.0,38,-99.99,,,-99.99,,2013-05-22 18:10:00,
2013-05-22 13:34:00,65.0,39.0,-100.00,NNE,30,17.0,22.0,38,-99.99,,,-99.99,,2013-05-22 18:34:00,
2013-05-22 13:42:00,65.0,39.0,-100.00,NNE,30,17.0,22.0,38,-99.99,,,-99.99,,2013-05-22 18:42:00,
2013-05-22 13:52:00,65.0,39.0,-100.00,NNE,30,17.0,22.0,38,-99.99,,,-99.99,,2013-05-22 18:52:00,
2013-05-22 14:02:00,65.0,39.0,-100.00,NNE,30,17.0,22.0,38,-99.99,,,-99.99,,2013-05-22 19:02:00,
2013-05-22 14:32:00,68.0,38.0,-100.00,NNE,30,18.0,20.0,34,-99.99,,,-99.99,,2013-05-22 19:32:00,
2013-05-22 14:42:00,68.0,38.0,-100.00,NNE,30,18.0,20.0,34,-99.99,,,-99.99,,2013-05-22 19:42:00,
2013-05-22 14:52:00,68.0,38.0,-100.00,NNE,30,18.0,20.0,34,-99.99,,,-99.99,,2013-05-22 19:52:00,
2013-05-22 15:02:00,68.0,38.0,-100.00,NNE,30,18.0,20.0,34,-99.99,,,-99.99,,2013-05-22 20:02:00,
2013-05-22 15:10:00,70.0,42.0,-100.00,NE,50,16.0,20.0,36,-99.99,,,-99.99,,2013-05-22 20:10:00,
2013-05-22 15:32:00,70.0,42.0,-100.00,NE,50,16.0,20.0,36,-99.99,,,-99.99,,2013-05-22 20:32:00,
2013-05-22 15:42:00,70.0,42.0,-100.00,NE,50,16.0,20.0,36,-99.99,,,-99.99,,2013-05-22 20:42:00,
2013-05-22 15:52:00,70.0,42.0,-100.00,NE,50,16.0,20.0,36,-99.99,,,-99.99,,2013-05-22 20:52:00,
2013-05-22 16:01:00,70.0,42.0,-100.00,NE,50,16.0,20.0,36,-99.99,,,-99.99,,2013-05-22 21:01:00,
2013-05-22 16:33:00,71.0,41.0,-100.00,NNE,30,18.0,21.0,34,-99.99,,,-99.99,,2013-05-22 21:33:00,
2013-05-22 16:42:00,71.0,41.0,-100.00,NNE,30,18.0,21.0,34,-99.99,,,-99.99,,2013-05-22 21:42:00,
2013-05-22 16:53:00,71.0,41.0,-100.00,NNE,30,18.0,21.0,34,-99.99,,,-99.99,,2013-05-22 21:53:00,
2013-05-22 17:03:00,71.0,41.0,-100.00,NNE,30,18.0,21.0,34,-99.99,,,-99.99,,2013-05-22 22:03:00,
2013-05-22 17:12:00,72.0,42.0,-100.00,NNE,30,14.0,16.0,34,-99.99,,,-99.99,,2013-05-22 22:12:00,
2013-05-22 17:33:00,72.0,42.0,-100.00,NNE,30,14.0,16.0,34,-99.99,,,-99.99,,2013-05-22 22:33:00,
2013-05-22 17:42:00,72.0,42.0,-100.00,NNE,30,14.0,16.0,34,-99.99,,,-99.99,,2013-05-22 22:42:00,
2013-05-22 17:52:00,72.0,42.0,-100.00,NNE,30,14.0,16.0,34,-99.99,,,-99.99,,2013-05-22 22:52:00,
2013-05-22 18:02:00,72.0,42.0,-100.00,NNE,30,14.0,16.0,34,-99.99,,,-99.99,,2013-05-22 23:02:00,
2013-05-22 18:10:00,73.0,43.0,-100.00,NNE,20,11.0,14.0,35,-99.99,,,-99.99,,2013-05-22 23:10:00,
2013-05-22 18:32:00,73.0,43.0,-100.00,NNE,20,11.0,14.0,35,-99.99,,,-99.99,,2013-05-22 23:32:00,
2013-05-22 18:42:00,73.0,43.0,-100.00,NNE,20,11.0,14.0,35,-99.99,,,-99.99,,2013-05-22 23:42:00,
2013-05-22 18:53:00,73.0,43.0,-100.00,NNE,20,11.0,14.0,35,-99.99,,,-99.99,,2013-05-22 23:53:00,
2013-05-22 19:01:00,73.0,43.0,-100.00,NNE,20,11.0,14.0,35,-99.99,,,-99.99,,2013-05-23 00:01:00,
2013-05-22 19:10:00,72.0,43.0,-100.00,NNE,25,13.0,16.0,36,-99.99,,,-99.99,,2013-05-23 00:10:00,
2013-05-22 19:32:00,72.0,43.0,-100.00,NNE,25,13.0,16.0,36,-99.99,,,-99.99,,2013-05-23 00:32:00,
2013-05-22 19:42:00,72.0,43.0,-100.00,NNE,25,13.0,16.0,36,-99.99,,,-99.99,,2013-05-23 00:42:00,
2013-05-22 19:52:00,72.0,43.0,-100.00,NNE,25,13.0,16.0,36,-99.99,,,-99.99,,2013-05-23 00:52:00,
2013-05-22 20:01:00,72.0,43.0,-100.00,NNE,25,13.0,16.0,36,-99.99,,,-99.99,,2013-05-23 01:01:00,
2013-05-22 20:11:00,70.0,45.0,-100.00,NE,35,7.0,9.0,41,-99.99,,,-99.99,,2013-05-23 01:11:00,
2013-05-22 20:32:00,70.0,45.0,-100.00,NE,35,7.0,9.0,41,-99.99,,,-99.99,,2013-05-23 01:32:00,
2013-05-22 20:42:00,70.0,45.0,-100.00,NE,35,7.0,9.0,41,-99.99,,,-99.99,,2013-05-23 01:42:00,
2013-05-22 20:52:00,70.0,45.0,-100.00,NE,35,7.0,9.0,41,-99.99,,,-99.99,,2013-05-23 01:52:00,
2013-05-22 21:02:00,70.0,45.0,-100.00,NE,35,7.0,9.0,41,-99.99,,,-99.99,,2013-05-23 02:02:00,
2013-05-22 21:10:00,64.0,50.0,-100.00,NNE,30,7.0,7.0,62,-99.99,,,-99.99,,2013-05-23 02:10:00,
2013-05-22 21:32:00,64.0,50.0,-100.00,NNE,30,7.0,7.0,62,-99.99,,,-99.99,,2013-05-23 02:32:00,
2013-05-22 21:42:00,64.0,50.0,-100.00,NNE,30,7.0,7.0,62,-99.99,,,-99.99,,2013-05-23 02:42:00,
2013-05-22 21:52:00,64.0,50.0,-100.00,NNE,30,7.0,7.0,62,-99.99,,,-99.99,,2013-05-23 02:52:00,
2013-05-22 22:02:00,64.0,50.0,-100.00,NNE,30,7.0,7.0,62,-99.99,,,-99.99,,2013-05-23 03:02:00,
2013-05-22 22:11:00,61.0,48.0,-100.00,ENE,60,12.0,15.0,62,-99.99,,,-99.99,,2013-05-23 03:11:00,
2013-05-22 22:33:00,61.0,48.0,-100.00,ENE,60,12.0,15.0,62,-99.99,,,-99.99,,2013-05-23 03:33:00,
2013-05-22 22:43:00,61.0,48.0,-100.00,ENE,60,12.0,15.0,62,-99.99,,,-99.99,,2013-05-23 03:43:00,
2013-05-22 22:53:00,61.0,48.0,-100.00,ENE,60,12.0,15.0,62,-99.99,,,-99.99,,2013-05-23 03:53:00,
2013-05-22 23:03:00,61.0,48.0,-100.00,ENE,60,12.0,15.0,62,-99.99,,,-99.99,,2013-05-23 04:03:00,
2013-05-22 23:10:00,58.0,47.0,-100.00,NE,55,7.0,9.0,66,-99.99,,,-99.99,,2013-05-23 04:10:00,
2013-05-22 23:33:00,58.0,47.0,-100.00,NE,55,7.0,9.0,66,-99.99,,,-99.99,,2013-05-23 04:33:00,
2013-05-22 23:43:00,58.0,47.0,-100.00,NE,55,7.0,9.0,66,-99.99,,,-99.99,,2013-05-23 04:43:00,
2013-05-22 23:52:00,58.0,47.0,-100.00,NE,55,7.0,9.0,66,-99.99,,,-99.99,,2013-05-23 04:52:00,